ANIK B1 (TELESAT-4)

导读 | 豆包AI

ANIK B1(又名TELESAT-4)是加拿大于1978年12月16日08:00发射的通信卫星,隶属于加拿大Telesat公司的Anik系列通信卫星项目。该卫星主要为加拿大全境提供广播电视转播与通信服务,是加拿大早期通信卫星组网建设的重要组成部分,推动了北美地区卫星通信基础设施发展,在加拿大通信广播事业发展历程中具有标志性意义。

基本信息
目录编号:
11153
目录名称:
ANIK B1 (TELESAT-4)
国际标识:
1978-116A
轨道中心:
EARTH
卫星名称:
ANIK B1 (TELESAT-4)
卫星全名:
--
卫星状态:
在轨 (已飞行17303 天)
发射日期:
1978-12-16 UTC
国别 :
加拿大 (CA)
星等 :
--
轨道信息
数据来源 国际轨道数据 AOE轨道数据
星历时间 2026-05-01T04:07:52+0800
14小时前
查看轨道信息
2026-05-01T05:00:00+0800
13小时前
查看轨道信息
半长轴 42291.551km 42291.438km
偏心率 0.0017916 0.0017854
轨道倾角 9.587° 9.588°
近地点辐角 332.358° 332.056°
升交点赤经 316.381° 316.380°
平近点角 208.918° 222.233°
近地点 35837.644km 35837.793km
远地点 35989.184km 35988.809km
周期 1442.581分钟 1442.575分钟
每日圈数 0.998211 0.998215
详细信息
使用方式:
暂无
2D轨道图
3D轨道图
轨道高度分析图
轨道倾角分析图
轨道综合分析图
查看轨道综合分析图